Flag for U.S.A. Weather past 2 weeks in Glendale, Arizona, U.S.A.

Now
59 °F

Clear.


Feels Like: 59 °F
Forecast: 61 / 90 °F
Wind: No wind

Location: Phoenix-Deer Valley Municipal Airport


UV Index: 7 (High)

Visibility: 10 mi


Pressure: 29.68 "Hg

Humidity: 14%

Dew point: 10 °F

Location of GlendaleLocation

Historic Weather in Glendale

°F

Glendale temperature yesterday

Maximum temperature yesterday: 85 °F (at 3:53 PM)
Minimum temperature yesterday: 56 °F (at 3:53 AM)
Average temperature yesterday: 72 °F

Past Weeks' High & Low Weather Summary

 TemperatureHumidityPressure
High94 °F (Apr 10, 3:53 PM)65% (Apr 3, 5:53 AM)30.10 "Hg (Apr 3, 5:53 AM)
Low44 °F (Apr 3, 5:53 AM)3% (Apr 10, 3:53 PM)29.61 "Hg (Apr 12, 4:53 PM)
Average70 °F17%29.85 "Hg
* Reported Apr 1 2:53 AM — Apr 16 2:53 AM, Glendale, Weather by CustomWeather, © 2014

Note: Actual official high and low records may vary slightly from our data, if they occured in-between our weather recording intervals... More about our weather records

Advertising

Historic Weather Conditions — Data for Previous 24 hours

 ConditionsComfort  
Time TempWeatherWind HumidityBarometerVisibility
2:53 AM
Apr 16
65 °FClear.3 mph10%29.68 "Hg10 mi
1:53 AM65 °FClear.No wind11%29.70 "Hg10 mi
12:53 AM67 °FClear.8 mph10%29.70 "Hg10 mi
11:53 PM
Apr 15
68 °FClear.8 mph9%29.70 "Hg10 mi
10:53 PM69 °FClear.12 mph10%29.70 "Hg10 mi
9:53 PM65 °FClear.3 mph13%29.71 "Hg10 mi
8:53 PM70 °FClear.No wind8%29.71 "Hg10 mi
7:53 PM77 °FClear.No wind5%29.69 "Hg10 mi
6:53 PM81 °FSunny.5 mph4%29.69 "Hg10 mi
5:53 PM84 °FSunny.7 mph4%29.70 "Hg10 mi
4:53 PM84 °FSunny.5 mph4%29.71 "Hg10 mi
3:53 PM85 °FSunny.5 mph4%29.73 "Hg10 mi
2:53 PM84 °FSunny.7 mph5%29.77 "Hg10 mi
1:53 PM83 °FSunny.9 mph5%29.80 "Hg10 mi
12:53 PM81 °FSunny.No wind6%29.83 "Hg10 mi
11:53 AM80 °FSunny.5 mph6%29.85 "Hg10 mi
10:53 AM78 °FSunny.3 mph7%29.89 "Hg10 mi
9:53 AM77 °FSunny.6 mph7%29.90 "Hg10 mi
8:53 AM74 °FSunny.10 mph7%29.90 "Hg10 mi
7:53 AM70 °FSunny.7 mph8%29.90 "Hg10 mi
6:53 AM62 °FSunny.No wind11%29.90 "Hg10 mi
5:53 AM62 °FClear.9 mph10%29.89 "Hg10 mi
4:53 AM58 °FClear.No wind13%29.88 "Hg10 mi
Weather by CustomWeather, © 2014

See weather overview